Location: *
(53.9002°N, 27.5624°E)
Time: 07:21:16
(UTC+00:00)

Envisat - Pass Details

Date: 12 November 2019
Orbit: 764 x 766 km, 98.1° (Epoch: 08 December)

Event Time Altitude Azimuth Distance (km) Brightness Sun altitude
Rises 14:58:17 0° 137° (SE) 3,227 6.0 -6.4°
Reaches altitude 10° 15:00:43 10° 129° (SE) 2,304 5.2 -6.7°
Maximum altitude 15:05:21 37° 63° (ENE) 1,176 3.5 -7.4°
Drops below altitude 10° 15:10:01 10° 357° (N) 2,318 5.3 -8.0°
Sets 15:12:28 0° 350° (N) 3,248 6.2 -8.3°
